Mountain Home, AR

9:13 PM CDT on October 13, 2019 (GMT -0500)
Baxter County Regional

Weather History for KBPK - August, 2019

Change the Weather History Date:

Wednesday, August 21, 2019

  Actual Average (WUND) Record (WUND)
Temperature  
Mean Temperature 78 °F -  
Max Temperature 90 °F - - (-1)
Min Temperature 66 °F - - (-1)
Cooling Degree Days 13    
Growing Degree Days 28 (Base 50)    
Moisture  
Dew Point 69 °F    
Average Humidity 88    
Maximum Humidity 100    
Minimum Humidity 63    
Precipitation  
Precipitation 1.58 in - - ()
Sea Level Pressure  
Sea Level Pressure 30.01 in    
Wind  
Wind Speed 4 mph (SW)    
Max Wind Speed 23 mph    
Max Gust Speed 34 mph    
Visibility 9 miles    
Events Rain , Thunderstorm    
Averages and records for this station are not official NWS values.
T = Trace of Precipitation, MM = Missing Value Source: NWS Daily Summary

Daily Weather History Graph

Daily Weather History Graph

Search for Another Location

Airport or City:

Astronomy

Aug. 21, 2019 Rise Set
Actual Time 6:32 AM CDT 7:53 PM CDT
Civil Twilight 6:05 AM CDT 8:19 PM CDT
Nautical Twilight 5:33 AM CDT 8:52 PM CDT
Astronomical Twilight 4:59 AM CDT 9:25 PM CDT
Moon 11:20 PM CDT (8/21) 11:59 AM CDT (8/21)
Length of Visible Light 14h 14m
Length of Day
13h 20m
Waning Gibbous, 69% of the Moon is Illuminated
Aug 21
Waning Gibbous
Aug 23
Last Quarter
Aug 30
New
Sep 5
First Quarter
Sep 13
Full

Hourly Weather History & Observations

Time (CDT) Temp. Heat Index Dew Point Humidity Pressure Visibility Wind Dir Wind Speed Gust Speed Precip Events Conditions
12:53 AM 70.0 °F - 68.0 °F 93% 30.01 in 10.0 mi Calm Calm - N/A   Clear
1:53 AM 70.0 °F - 66.9 °F 90% 30.00 in 10.0 mi Calm Calm - N/A   Clear
2:53 AM 68.0 °F - 66.9 °F 96% 29.99 in 10.0 mi Calm Calm - N/A   Clear
3:53 AM 66.9 °F - 66.9 °F 100% 29.97 in 10.0 mi Calm Calm - N/A   Clear
4:53 AM 66.9 °F - 66.9 °F 100% 29.96 in 10.0 mi Calm Calm - N/A   Clear
5:53 AM 66.9 °F - 66.9 °F 100% 29.99 in 10.0 mi Calm Calm - N/A   Clear
6:53 AM 68.0 °F - 68.0 °F 100% 30.03 in 10.0 mi Calm Calm - N/A   Clear
7:53 AM 73.0 °F - 69.1 °F 87% 30.03 in 10.0 mi Calm Calm - N/A   Clear
8:53 AM 77.0 °F - 70.0 °F 79% 30.04 in 10.0 mi South 4.6 mph - N/A   Clear
9:53 AM 80.1 °F 83.6 °F 71.1 °F 74% 30.03 in 10.0 mi SSW 4.6 mph - N/A   Clear
10:53 AM 84.0 °F 91.2 °F 73.9 °F 72% 30.03 in 10.0 mi WSW 5.8 mph - N/A   Clear
11:53 AM 86.0 °F 95.1 °F 75.0 °F 70% 30.03 in 10.0 mi West 3.5 mph - N/A   Clear
12:53 PM 90.0 °F 101.3 °F 75.9 °F 63% 30.03 in 10.0 mi Calm Calm - N/A   Clear
1:53 PM 89.1 °F 99.1 °F 75.0 °F 63% 30.00 in 10.0 mi Calm Calm - N/A   Partly Cloudy
2:22 PM 87.1 °F 97.3 °F 75.9 °F 69% 30.02 in 10.0 mi Variable 3.5 mph - N/A Thunderstorm Clear
2:53 PM 82.9 °F 91.8 °F 77.0 °F 82% 29.99 in 10.0 mi Variable 5.8 mph - N/A Thunderstorm Mostly Cloudy
3:14 PM 79.0 °F - 70.0 °F 74% 30.02 in 10.0 mi WNW 5.8 mph - N/A Thunderstorm Thunderstorm
3:51 PM 69.8 °F - 68.0 °F 94% 30.08 in 1.8 mi SW 18.4 mph 27.6 mph 0.28 in Rain , Thunderstorm Heavy Thunderstorms and Rain
3:53 PM 69.1 °F - 66.9 °F 93% 30.07 in 1.5 mi SSW 23.0 mph 29.9 mph 0.39 in Rain , Thunderstorm Heavy Thunderstorms and Rain
3:58 PM 68.0 °F - 66.9 °F 96% 30.10 in 1.0 mi SSW 17.3 mph 29.9 mph 0.25 in Rain , Thunderstorm Heavy Thunderstorms and Rain
4:17 PM 70.0 °F - 66.9 °F 90% 30.06 in 1.0 mi South 20.7 mph 34.5 mph 0.98 in Rain , Thunderstorm Heavy Thunderstorms and Rain
4:23 PM 70.0 °F - 66.0 °F 87% 30.04 in 2.5 mi South 12.7 mph 34.5 mph 1.06 in Rain , Thunderstorm Heavy Thunderstorms and Rain
4:53 PM 71.1 °F - 66.0 °F 84% 29.99 in 10.0 mi SSW 6.9 mph - 1.14 in Rain , Thunderstorm Light Rain
5:15 PM 70.0 °F - 66.9 °F 90% 30.04 in 9.0 mi WSW 6.9 mph - 0.02 in Rain , Thunderstorm Thunderstorms and Rain
5:27 PM 70.0 °F - 68.0 °F 93% 30.04 in 9.0 mi South 6.9 mph - 0.04 in Rain Light Rain
5:53 PM 69.1 °F - 68.0 °F 96% 30.00 in 10.0 mi WNW 3.5 mph - 0.05 in Rain Light Rain
7:53 PM 69.1 °F - 69.1 °F 100% 29.96 in 10.0 mi East 6.9 mph - N/A   Partly Cloudy
8:53 PM 69.1 °F - 69.1 °F 100% 29.96 in 10.0 mi SW 3.5 mph - N/A   Clear
9:53 PM 70.0 °F - 69.1 °F 97% 29.96 in 10.0 mi SE 4.6 mph - N/A   Clear
10:53 PM 69.1 °F - 69.1 °F 100% 29.99 in 10.0 mi Calm Calm - N/A   Clear
11:53 PM 69.1 °F - 69.1 °F 100% 30.00 in 10.0 mi WNW 4.6 mph - N/A   Clear